Location: *
(15.1333°N, 12.7333°W)
Time: 21:41:03
(UTC+00:00)

Daily predictions for brighter satellites

Satellite Brightness Start Highest point End
(mag) Time Altitude Azimuth Time Altitude Azimuth Time Altitude Azimuth
SEDSat Delta rocket 4.3 18:41:55 10° W 18:47:21 45° NNW 18:52:06 10° NE
Okean-O 2.6 18:52:02 10° SSE 18:56:26 80° E 19:00:52 10° N
Atlas Centaur 2 4.4 18:51:22 10° W 18:57:26 28° SW 19:02:31 10° SSE
COSMO-SKYMED 1 3.4 18:55:18 10° N 18:59:33 56° WNW 19:03:47 10° SSW
NOSS 3-2 (C) 4.4 18:55:57 10° SW 19:01:09 44° WNW 19:06:39 10° N
GPS 2-12 Rocket1 3.1 18:57:33 10° WNW 19:02:16 70° NNE 19:06:23 13° E
Cosmos 1300 2.7 19:00:13 10° S 19:03:58 58° E 19:07:42 10° NNE
TELKOM 3 4.0 19:05:27 10° S 19:07:25 24° SE 19:08:06 20° E
Cosmos 1833 Rocket 3.7 19:03:37 10° NNE 19:08:05 24° ENE 19:12:32 10° ESE
Unknown 3.9 19:06:23 10° N 19:08:28 20° NE 19:09:06 19° ENE
deb Ariane 4.2 19:08:38 10° SW 19:11:06 29° SSE 19:16:08 12° ESE
SWIFT 2.4 19:08:21 10° W 19:12:36 76° NNW 19:15:39 18° ENE
Lacrosse 5 rocket 2.6 19:10:21 10° NW 19:14:09 42° WSW 19:18:10 10° SSE
Cosmos 2369 Rocket 3.2 19:09:48 10° SSE 19:14:16 24° ESE 19:17:22 15° ENE
Cosmos 2208 Rocket 4.5 19:09:35 10° SSE 19:14:24 37° E 19:19:09 10° NE
Cosmos 1763 Rocket 3.6 19:10:42 10° S 19:15:53 56° ESE 19:21:04 10° NNE
Cosmos 1777 Rocket 4.0 19:10:58 10° N 19:16:03 56° ENE 19:21:07 10° SSE
Cosmos 1812 Rocket 4.3 19:16:03 10° SSW 19:20:21 56° W 19:24:41 10° N
Cosmos 1076 Rocket 4.4 19:16:47 10° NNE 19:20:22 25° E 19:23:55 10° SE
CSL-04 Debris 4.4 19:15:46 10° SSE 19:20:54 45° ENE 19:26:04 10° N
Cosmos 1727 Rocket 4.4 19:18:42 10° SSW 19:24:49 65° W 19:30:56 10° N
Cosmos 192 4.5 19:20:32 10° S 19:25:14 49° ESE 19:29:56 10° NNE
ATLAS 3B R/B 3.5 19:18:57 10° SW 19:25:38 53° WNW 19:32:10 10° N
Cosmos 1605 Rocket 4.0 19:23:09 10° N 19:29:15 84° W 19:35:19 10° S
IUS-13 SRM-1 4.3 19:26:30 10° W 19:30:03 49° SSW 19:45:55 10° SE
YAOGAN 1 2.5 19:26:55 10° SSE 19:31:10 58° ENE 19:35:23 10° N
CENTAUR R/B 3.7 19:27:47 10° SW 19:32:42 35° WNW 19:38:09 10° N
USA 215 3.7 19:27:01 10° SSE 19:33:31 66° SW 19:40:00 10° NW
Envisat 3.5 19:28:35 10° S 19:33:35 61° W 19:38:36 10° NNW
Cosmos 1943 Rocket 2.3 19:28:30 10° S 19:33:45 47° ESE 19:37:34 18° NE
Cosmos 1814 Rocket 4.1 19:35:51 10° S 19:40:50 51° ESE 19:43:45 24° NE
Cosmos 2082 Rocket 2.7 19:36:19 10° N 19:41:22 33° ENE 19:41:43 33° ENE
Cosmos 2123 Rocket 4.3 19:35:44 10° SSE 19:41:38 42° E 19:47:29 10° NNE
Cosmos 839 Rocket 4.5 19:35:09 10° NNW 19:42:08 87° ENE 19:50:59 10° SSE
Cosmos 2173 Rocket 4.3 19:40:29 10° NNE 19:46:12 40° E 19:51:50 10° SSE
GPS 2-05 Rocket1 2.9 19:43:43 10° WSW 19:46:02 54° W 19:46:02 54° W
CZ-2C R/B 4.0 19:47:17 44° E 19:47:25 44° E 19:51:53 10° S
Fermi 3.6 19:43:20 10° WSW 19:47:25 70° SSE 19:47:59 60° ESE
Cosmos 1000 Rocket 4.5 19:42:17 10° S 19:48:26 85° W 19:54:39 10° N
CZ-4 R/B 2.6 19:49:02 10° S 19:52:57 43° W 19:56:56 10° NNW
Cosmos-2242 3.3 19:51:30 10° SSW 19:55:51 68° W 20:00:10 10° N
OAO 2 Rocket 3.9 19:53:04 10° NW 19:58:03 41° NNE 19:58:04 41° NNE
Centaur D-1AR AC-41 2.6 19:52:26 10° W 19:58:20 72° NNW 19:58:49 61° NE
Cosmos 2263 4.4 19:54:14 10° S 19:59:12 47° ESE 19:59:12 47° ESE
Cosmos 44 Rocket 4.0 19:55:18 10° SW 20:00:14 53° WNW 20:03:44 18° N
GPS 2-18 Rocket1 4.3 19:56:47 10° WNW 19:59:59 34° NNW 19:59:59 34° NNW
SL-24 R/B 4.4 20:06:37 22° N 20:09:37 69° WNW 20:13:51 10° SSW
FUSE 3.7 20:05:34 10° WNW 20:10:54 89° NNE 20:11:07 83° ESE
Cosmos 1461 4.2 20:06:41 10° NNW 20:09:01 32° NNW 20:09:01 32° NNW
Cosmos 2100 Rocket 3.8 20:09:12 10° N 20:15:21 88° E 20:21:30 10° S
USA 234 3.1 20:17:00 63° E 20:17:47 68° SE 20:24:16 10° SSW
Skynet4D Del rocket 3.5 20:13:35 10° WSW 20:19:05 80° SSE 20:19:05 80° SSE
ATLAS 5 CENTAUR R/B 3.4 20:33:52 10° WSW 20:40:36 87° SSE 20:46:00 52° ENE
ADEOS Rocket 3.9 20:55:31 37° NNW 20:57:52 51° WNW 21:04:04 10° SSW
Cosmos 2369 Rocket 4.1 20:53:23 10° SW 20:58:01 26° WNW 20:59:17 24° NW
H-II Stage 2 4.3 19:39:01 10° WSW 21:00:03 69° NNW 21:01:19 64° N
CZ-3B R/B 4.5 21:45:08 10° WNW 22:05:37 65° SW 22:05:37 65° SW
